Regional Weather Roundup
Issued by NWS

Home | Current Version | Previous Version | Text Only | Print | Product List | Glossary On
Versions: 1 2 3 4 5 6 7 8 9 10 11 12 13 14 15 16 17 18 19 20 21 22 23 24 25 26 27 28 29 30 31 32 33 34 35 36 37 38 39 40 41 42 43 44 45 46 47 48 49 50
000
ASUS43 KLOT 040410
RWRIL

ILLINOIS REGIONAL WEATHER ROUNDUP
NATIONAL WEATHER SERVICE CHICAGO/ROMEOVILLE IL
1000 PM CST TUE MAR 03 2015

NOTE: "FAIR" INDICATES FEW OR NO CLOUDS BELOW 12,000 FEET WITH NO
SIGNIFICANT WEATHER AND/OR OBSTRUCTIONS TO VISIBILITY.

* THESE STATIONS ARE NOT UNDER NWS QUALITY CONTROL. THEY ALSO MAY NOT
  REPORT WEATHER SUCH AS PRECIPITATION OR FOG.

ILZ001-002-007-009-015-016-024-040500-
NORTHWEST ILLINOIS

CITY           SKY/WX    TMP DP  RH WIND       PRES   REMARKS
MOLINE         CLOUDY    28  20  71 NW17G28   29.93R WCI  16
STERLING*      CLOUDY    30  27  86 W15G21    29.90R WCI  19
SAVANNA*       CLOUDY    28  22  76 W10       29.91R WCI  19
$$

ILZ003-004-008-010-011-017-018-040500-
NORTH CENTRAL ILLINOIS

CITY           SKY/WX    TMP DP  RH WIND       PRES   REMARKS
ROCKFORD       CLOUDY    31  23  72 NW14      29.88R WCI  21
FREEPORT*      CLOUDY    29  24  81 W6        29.89R WCI  23
ROCHELLE*      CLOUDY    31  26  82 W14       29.87S WCI  20
DE KALB*       CLOUDY    29  25  86 W8        29.87R WCI  21
PERU*          CLOUDY    32  27  81 W9        29.89S WCI  24
$$

ILZ005-006-012>014-019>023-040500-
NORTHEAST ILLINOIS

CITY           SKY/WX    TMP DP  RH WIND       PRES   REMARKS
CHICAGO-OHARE  CLOUDY    31  23  72 W10       29.85R WCI  22
CHICAGO-MIDWAY CLOUDY    34  25  69 W8        29.87R WCI  27
AURORA         CLOUDY    32  26  78 W10       29.88R WCI  24
LANSING*       CLOUDY    33  28  79 W6        29.87R WCI  28
JOLIET*        CLOUDY    32  26  78 W7        29.89R WCI  26
WAUKEGAN       MOCLDY    30  24  78 SW3       29.83S
DUPAGE AIRPORT CLOUDY    31  23  72 W10       29.85S WCI  22
KANKAKEE*      CLOUDY    33  29  87 W14G20    29.88S WCI  23
WHEELING       MOCLDY    31  25  78 W9        29.86R WCI  23
MORRIS*        CLOUDY    32  28  88 W12       29.88R WCI  23
ROMEOVILLE*    CLOUDY    32  26  78 NW13      29.87R WCI  22
NORTHERLY ISL    N/A     33  25  72 W9          N/A  WCI  25
$$

LMZ740>746-040500-
SOUTHERN LAKE MICHIGAN

STATION/POSITION SKY/WX   TEMP    WIND        PRES    VSBY  WAVE
                          AIR SEA DIR/SP/G                  HT/PER
                          (F)     (DEG/KT/KT) (MB)    (MI)  (FT/S)
WAUKEGAN HARBOR            31                   N/A
HARRISON CRIB              33     280/ 16/ 20   N/A
BURNHAM HARBOR             33     250/  4/ 14   N/A
CALUMET HARBOR             33     260/  7/ 16 1010.0R
MICHIGAN CITY              33     250/ 12/ 14   N/A
$$

ILZ025>027-034>036-040-047-049-050-058-095>099-040500-
WEST-CENTRAL ILLINOIS

CITY           SKY/WX    TMP DP  RH WIND       PRES   REMARKS
QUINCY         CLOUDY    33  29  85 N8        29.93F WCI  26
GALESBURG*     CLOUDY    28  24  83 NW17      29.93R WCI  16
MACOMB*        CLOUDY    32  29  88 NW15G22   29.95F WCI  22
JACKSONVILLE*  CLOUDY    36  30  78 NW12      29.91F WCI  28
PITTSFIELD*    CLOUDY    36  30  80 N10       29.92F WCI  28
$$

ILZ028>032-037-038-041>044-048-051>054-059>061-040500-
CENTRAL ILLINOIS

CITY           SKY/WX    TMP DP  RH WIND       PRES   REMARKS
PONTIAC        CLOUDY    33  31  90 NW10      29.90S WCI  25
BLOOMINGTON    CLOUDY    33  30  89 NW16      29.90R WCI  22
DECATUR        CLOUDY    35  30  82 NW9       29.91R WCI  28
PEORIA         CLOUDY    34  26  72 NW7       29.91F WCI  28
LACON*         CLOUDY    32  26  80 W3        29.90F
LINCOLN*       CLOUDY    35  31  85 NW7       29.92R WCI  29
SPRINGFIELD    CLOUDY    36  29  75 NW12      29.91S WCI  28
TAYLORVILLE    CLOUDY    34  32  93 NW10      29.92R WCI  26
$$

ILZ033-039-045-046-055>057-062-063-040500-
EAST-CENTRAL ILLINOIS

CITY           SKY/WX    TMP DP  RH WIND       PRES   REMARKS
CHAMPAIGN      CLOUDY    34  31  88 W10       29.90R WCI  26
DANVILLE*      CLOUDY    34  32  93 W5        29.86R WCI  30
RANTOUL*       CLOUDY    36  32  87 NW13      29.88R WCI  27
MATTOON        CLOUDY    35  33  92 NW12      29.90S WCI  27
PARIS*         CLOUDY    35  35  99 W8        29.90F WCI  29
$$

ILZ079-100>102-040500-
SOUTHWEST ILLINOIS

CITY           SKY/WX    TMP DP  RH WIND       PRES   REMARKS
ALTON          CLOUDY    38  36  93 NW5       29.93R WCI  34
BELLEVILLE     LGT RAIN  39  39 100 N6        29.90F FOG     WCI  35
CAHOKIA*       LGT RAIN  41  38  89 N7        29.91S
SPARTA*        LGT RAIN  40  40  99 N5        29.92F
$$

ILZ064>066-069>071-074>076-080>082-084>086-088>090-092>094-040500-
SOUTH-CENTRAL ILLINOIS

CITY           SKY/WX    TMP DP  RH WIND       PRES   REMARKS
CARBONDALE     LGT RAIN  41  40  96 W3        29.93R VSB 1/2
CAIRO*         RAIN     N/A N/A N/A NW5       29.90R
EFFINGHAM*     LGT RAIN  37  35  92 W3        29.94R
MARION         RAIN      43  43 100 CALM      29.92S
MT. VERNON     CLOUDY    37  34  87 CALM      29.92S VSB 1/2
CENTRALIA*     LGT RAIN  38  37  94 N5        29.92S WCI  35
SALEM*         RAIN      40  38  95 NW3       29.93R
METROPOLIS*    RAIN      46  46 100 NW8       29.91R
$$

ILZ067-068-072-073-078-083-087-091-040500-
SOUTHEAST ILLINOIS

CITY           SKY/WX    TMP DP  RH WIND       PRES   REMARKS
LAWRENCEVILLE  LGT RAIN  38  38 100 SW5       29.93S WCI  34
FLORA*         RAIN      39  39 100 W5        29.94R
FAIRFIELD*     RAIN      40  40  99 CALM      29.92R
HARRISBURG*    RAIN      43  43 100 N3        29.93F
ROBINSON*      LGT RAIN  38  38 100 NW3       29.93F
CARMI*         HVY RAIN  41  41 100 N5        29.91S VSB 1/2
$$

ABBREVIATIONS USED IN REMARKS
   TC - TEMPERATURE IN CELSIUS
  WCI - WIND CHILL INDEX
   HX - HEAT INDEX
  VSB - VISIBILITY
$$




USA.gov is the U.S. government's official web portal to all federal, state and local government web resources and services.